Theta_e
318 315 314 314 315 318 319 316 314 316 315 315 315 316 317 316 315 316 316 316 316 317 317 317 318 318 319 321 321 320 319 319 320 320 321 320 318 319 318 318 318 317 317 317 317 322 327 328 328 328 328 329 329 330 330 330 330 330 330 329 328 328 330 330 330 332 332 331 333 335 334 333 333 333 333 333 333 333 333 333 333 333 333 332 332 332 332 331
318 315 314 315 316 317 320 318 314 315 315 315 315 315 316 316 316 316 316 316 316 317 317 318 319 320 321 322 322 321 320 320 321 321 320 318 317 317 317 317 316 316 317 317 319 322 325 326 328 328 329 330 330 330 331 331 331 330 330 329 329 330 330 331 331 332 332 331 334 335 334 333 333 333 333 333 333 333 332 332 332 332 331 330 330 330 329 329
319 315 314 315 316 318 319 319 315 314 315 315 315 315 316 316 316 316 316 316 317 317 317 318 319 321 321 322 322 322 321 321 323 322 321 319 318 318 318 318 318 319 319 320 322 324 326 327 329 329 329 330 330 331 331 331 331 331 331 330 330 331 331 332 333 333 333 332 334 334 334 333 332 332 332 332 333 333 332 332 333 333 331 329 327 327 327 327
319 315 314 315 317 318 319 319 315 314 315 315 315 315 316 316 316 316 317 316 317 317 317 318 319 320 321 322 322 322 322 323 323 322 321 321 320 320 320 321 321 321 322 324 325 326 328 329 329 330 330 331 331 331 331 331 332 331 332 330 330 331 331 333 333 333 333 333 333 334 334 333 333 332 331 332 332 332 334 333 333 333 331 329 327 327 327 327
319 316 314 315 317 318 318 317 314 313 314 315 315 315 316 316 316 316 317 316 317 317 317 318 319 320 321 322 322 322 323 323 323 322 322 321 321 321 321 322 323 323 324 326 327 328 329 329 330 330 331 331 331 331 330 332 332 332 331 330 332 332 332 332 333 332 332 332 332 333 332 332 332 332 331 331 333 333 334 334 333 332 330 329 328 328 328 326
319 316 314 315 317 318 317 316 314 313 314 314 314 315 316 316 316 316 317 317 317 317 317 318 319 320 321 322 322 323 324 323 322 322 322 322 322 321 322 324 324 325 325 326 328 329 329 329 330 330 331 331 330 330 330 332 332 330 331 331 333 333 332 333 333 332 332 332 331 332 331 331 332 332 332 333 334 334 334 333 332 331 330 330 329 328 327 326
319 316 314 315 317 317 317 317 316 316 315 315 315 315 316 316 316 316 317 317 317 317 318 318 320 320 320 321 322 323 324 323 322 323 323 324 323 323 324 326 326 325 325 327 329 329 329 329 330 331 330 329 330 331 331 332 332 331 330 332 332 332 332 332 332 332 331 331 331 331 331 331 331 332 332 333 333 333 333 332 332 331 330 330 329 328 327 326
319 316 314 315 317 317 318 318 318 318 317 316 315 315 316 316 316 317 317 317 317 317 318 318 319 320 321 321 322 324 324 322 322 324 325 325 324 324 326 327 327 326 327 328 329 329 329 329 330 330 330 330 330 330 330 331 331 331 331 332 333 332 332 332 332 332 331 331 331 331 332 331 331 331 332 332 332 332 332 332 331 331 330 329 329 328 327 326
319 316 314 315 317 318 319 319 319 318 318 316 315 314 316 316 316 317 317 317 317 317 317 318 319 320 321 321 323 324 322 321 321 323 325 326 326 326 327 327 327 327 328 329 328 329 329 329 329 330 330 331 331 330 330 331 331 331 332 333 333 333 332 332 331 331 331 331 331 331 332 331 331 331 331 332 332 332 332 332 331 331 330 329 329 328 328 327
319 316 314 315 317 318 319 319 319 318 317 315 314 314 316 316 317 317 317 317 317 318 318 318 319 320 321 321 323 323 321 321 322 322 325 327 327 326 327 327 327 328 328 328 328 329 329 329 329 330 331 331 331 331 331 331 331 332 333 333 333 333 332 331 331 331 331 331 331 330 331 332 332 331 330 331 332 332 332 332 331 331 330 330 329 329 328 327
319 316 314 315 317 318 319 319 319 318 315 313 314 315 316 317 316 317 317 317 317 317 318 318 319 320 320 321 323 322 320 321 322 323 325 327 327 327 327 327 328 328 328 328 328 329 329 329 329 330 330 331 331 331 331 331 331 332 332 332 332 332 332 331 331 331 330 331 331 330 331 331 331 330 330 332 333 333 332 332 332 331 330 330 330 329 328 327
319 317 314 315 317 318 319 319 318 318 315 313 314 315 316 317 316 317 317 317 317 317 318 318 319 319 321 322 322 321 320 321 323 325 326 326 327 326 327 327 328 328 328 329 329 329 329 329 329 330 329 330 330 331 331 331 331 331 331 331 331 332 331 331 331 331 330 330 330 330 329 329 330 330 331 333 333 333 333 333 332 331 330 330 330 329 328 328
319 317 314 314 317 318 319 319 318 318 316 315 315 316 316 316 316 316 317 317 317 317 318 319 319 319 322 323 320 320 320 321 323 324 325 327 327 326 327 328 328 328 329 329 329 329 329 330 330 330 330 331 331 331 331 331 331 331 331 331 330 329 329 330 331 331 330 329 329 329 327 327 329 331 332 333 333 333 333 332 332 332 331 331 330 330 329 328
319 317 314 314 316 318 319 319 319 318 317 316 316 316 316 316 316 316 317 317 317 318 318 319 319 319 323 322 320 320 320 321 322 324 326 328 328 328 328 328 328 329 329 329 329 330 330 330 330 330 331 330 330 331 330 331 331 331 330 330 330 328 327 330 331 331 330 328 330 329 325 325 328 331 332 332 332 333 332 332 332 332 332 331 331 330 330 329
318 317 315 314 316 318 318 319 319 318 317 316 316 316 316 316 316 316 317 317 317 318 318 319 319 319 322 322 320 320 320 320 321 324 326 327 328 329 329 329 329 329 329 329 329 330 330 329 330 330 330 330 331 331 330 330 330 330 328 327 327 326 326 329 330 331 331 328 329 330 325 324 326 329 331 331 332 333 332 331 332 332 332 332 332 331 331 330
318 317 315 313 315 317 318 318 319 318 317 317 316 316 316 316 316 317 317 317 317 318 318 320 319 319 322 322 321 320 320 320 321 324 326 327 328 328 329 329 329 329 329 329 329 329 329 330 330 330 331 331 331 331 331 329 328 328 327 325 326 326 327 328 328 330 330 328 329 329 327 325 326 329 331 331 332 332 331 331 332 333 333 332 332 332 331 331
318 316 315 313 314 317 318 318 319 318 317 317 316 317 317 317 317 317 317 317 317 318 318 319 319 320 321 321 321 320 320 320 320 324 327 327 328 328 329 329 329 329 329 329 329 330 329 330 330 330 331 331 330 331 329 325 325 326 327 326 327 328 328 327 328 329 329 329 330 328 328 326 326 328 330 330 332 332 331 331 332 332 332 332 332 332 332 331
317 316 315 313 314 316 318 318 319 318 317 317 317 317 318 318 318 317 317 317 318 319 319 319 320 320 320 320 321 320 320 320 320 324 326 327 327 328 328 329 329 329 329 329 329 330 329 330 331 330 330 329 330 330 326 324 325 326 326 325 326 327 327 327 328 329 328 329 330 328 328 327 326 327 329 330 331 331 332 331 332 332 332 332 332 332 332 332
317 316 315 313 313 316 318 318 318 319 318 318 318 318 319 319 317 318 318 317 319 321 321 321 321 320 320 320 320 320 320 321 321 324 326 326 327 327 328 328 329 329 330 330 329 330 330 331 331 329 329 329 329 329 326 327 328 327 327 326 325 325 325 327 328 328 330 330 330 329 328 327 326 327 328 329 330 331 332 331 332 332 332 333 332 332 333 332
316 316 314 313 313 315 318 318 318 319 318 318 318 319 321 321 319 319 320 319 319 320 320 321 320 320 321 320 320 320 320 321 322 324 326 326 326 327 328 328 328 328 329 329 328 329 330 329 329 327 327 328 328 328 328 329 328 328 329 327 327 325 325 327 328 328 331 331 329 329 328 328 327 327 328 329 330 331 332 332 332 332 332 332 332 332 333 332
315 315 314 313 313 315 318 318 318 319 318 318 318 320 323 323 324 322 321 321 319 318 319 320 318 319 320 320 320 320 321 322 322 325 326 325 326 327 326 327 327 328 328 329 329 328 329 328 327 327 328 328 328 328 329 329 330 330 329 328 327 326 325 328 328 328 330 331 329 328 329 329 328 327 328 329 330 330 331 331 331 332 332 332 332 332 332 333
314 315 314 313 313 315 318 319 318 319 318 318 319 320 320 320 322 321 320 323 321 318 318 319 318 320 320 320 320 320 321 322 322 324 325 324 326 326 325 325 326 327 327 329 329 328 327 328 328 329 328 328 328 328 329 329 329 329 329 328 325 326 327 328 328 328 329 331 329 328 329 328 328 328 328 329 330 330 330 331 331 331 332 331 331 332 332 333
314 314 314 314 313 315 318 318 319 319 318 318 318 318 318 317 319 318 319 324 323 320 320 320 321 322 323 321 321 320 321 322 321 324 324 324 326 325 325 326 326 327 327 327 327 326 325 327 329 330 329 329 328 328 329 329 329 328 328 326 324 326 328 326 328 329 329 330 329 329 330 328 328 328 328 329 329 330 330 330 331 331 331 331 331 332 332 333
314 314 314 314 313 315 318 318 319 319 318 318 318 318 317 317 318 318 321 325 323 322 322 321 321 322 323 322 321 321 321 321 320 323 323 323 325 324 324 326 326 327 327 326 327 326 326 328 330 330 328 329 329 328 329 329 328 328 328 327 325 327 328 326 328 330 330 330 329 330 328 324 327 328 328 329 329 330 330 330 331 331 331 331 332 332 332 332
314 314 314 314 313 316 318 318 319 319 318 318 318 319 317 317 318 318 323 326 320 321 322 320 321 321 321 320 319 320 320 319 320 320 322 323 324 324 325 325 325 327 327 326 328 327 327 329 330 330 328 328 329 328 328 328 327 326 327 329 328 328 328 328 329 330 328 327 327 330 325 321 324 327 326 328 328 329 330 330 331 330 331 331 332 332 333 333
314 314 314 314 313 315 317 318 318 319 320 318 318 319 317 317 318 318 324 325 318 320 322 320 321 320 319 319 318 319 319 319 319 318 321 323 323 324 325 325 325 326 326 327 328 327 327 329 330 330 329 328 329 328 327 328 327 325 326 329 329 329 329 328 329 328 324 323 326 330 325 320 322 325 326 328 328 328 329 330 331 329 330 331 331 331 333 333
314 313 314 314 313 315 317 317 317 319 320 318 318 319 318 317 317 319 324 320 316 320 321 320 321 318 319 319 318 318 318 318 320 319 321 322 322 323 324 324 325 325 327 328 324 325 328 329 328 329 329 329 328 327 327 328 327 324 327 329 328 329 330 329 329 327 324 326 327 329 327 322 319 323 327 328 328 328 328 329 329 329 329 329 330 330 332 333
313 313 313 313 313 314 315 316 317 318 318 318 318 319 319 317 317 323 323 314 315 321 320 320 320 318 318 318 318 319 318 318 320 320 322 322 323 324 323 323 324 324 327 326 322 324 328 328 328 329 329 328 327 327 327 328 328 326 328 329 328 329 330 330 329 327 327 328 325 324 328 323 319 322 328 329 328 329 329 329 329 329 329 329 329 330 331 332
313 313 313 313 313 313 314 315 316 317 317 317 319 319 318 317 319 326 322 314 318 321 319 320 319 319 319 319 319 319 319 319 319 320 322 323 323 323 323 323 323 324 326 325 323 325 327 327 328 328 328 327 326 327 327 327 329 328 328 329 329 329 330 330 329 327 327 326 322 323 326 324 320 322 326 328 327 328 329 329 329 329 329 329 329 330 331 332
312 312 313 314 314 313 314 315 316 317 317 317 319 318 317 319 323 322 317 317 321 320 319 320 319 319 319 319 320 319 319 320 319 320 322 323 323 322 322 323 324 325 325 325 325 325 326 327 327 327 327 327 327 328 327 328 329 329 329 329 329 329 330 330 328 327 326 324 323 324 326 327 325 322 324 328 327 328 329 329 330 330 329 329 329 330 331 331
311 312 313 314 314 314 314 315 316 317 318 318 319 317 318 323 324 319 317 319 320 319 320 321 320 320 320 319 320 320 319 319 319 320 321 322 322 322 322 322 324 324 323 324 325 325 326 326 327 327 327 327 328 328 329 330 329 329 330 329 329 327 327 327 326 325 323 322 324 325 326 329 325 322 324 328 327 328 328 328 329 330 330 330 330 331 330 330
310 312 312 314 314 314 314 315 316 316 318 319 318 318 321 321 319 318 320 319 319 321 321 321 321 321 321 320 320 319 319 319 319 319 320 321 321 322 322 322 323 321 319 320 322 323 325 326 326 326 326 327 328 328 329 329 329 329 328 326 325 322 322 322 321 321 321 321 324 326 328 328 325 323 326 328 327 328 328 328 329 330 330 331 331 331 331 330
309 312 312 314 314 314 314 314 315 316 318 319 318 321 321 317 316 320 321 320 321 323 322 322 322 321 321 320 319 320 319 319 319 319 320 320 320 322 321 321 322 320 319 320 320 320 321 325 326 325 326 327 327 327 325 325 326 326 324 322 322 321 321 321 320 321 321 321 323 326 327 325 323 324 327 328 327 329 329 329 330 331 331 331 331 331 331 331
309 313 313 314 315 314 314 314 315 317 318 319 320 321 318 314 318 322 322 321 322 323 322 322 321 320 320 320 320 320 319 319 319 319 319 320 320 321 321 321 321 321 322 321 319 319 318 320 324 325 326 326 327 326 325 325 326 325 326 325 322 321 322 321 320 320 321 321 322 324 324 322 322 325 326 327 328 329 329 330 331 331 332 332 331 331 331 332
308 313 314 315 315 314 314 313 315 317 318 320 322 318 315 314 318 322 323 323 322 322 322 321 321 320 320 320 321 320 319 319 319 319 320 320 320 321 321 321 321 322 322 320 319 320 317 318 322 324 325 326 326 327 327 327 325 325 327 325 321 322 323 321 322 323 323 321 321 322 323 323 325 326 327 328 329 329 330 331 331 331 332 333 332 333 333 333
308 313 315 316 315 314 314 314 316 317 318 322 321 317 315 317 320 322 323 323 322 323 322 320 320 319 318 320 321 321 320 320 321 320 320 320 320 320 320 321 321 322 322 321 321 320 317 319 323 324 324 326 327 327 327 325 324 324 324 322 322 325 325 322 322 326 325 321 320 321 322 324 324 326 327 329 328 328 330 330 330 332 332 333 334 335 334 333
308 314 317 316 316 317 317 317 317 317 319 322 320 318 319 320 321 323 323 323 323 324 323 320 319 319 317 318 319 321 321 320 321 320 319 319 319 320 321 321 321 321 322 322 322 322 320 319 323 324 325 326 327 327 327 326 326 324 321 322 324 325 325 323 320 321 321 319 319 320 320 320 321 323 326 328 328 328 328 329 330 333 333 334 336 336 334 334
308 314 317 317 318 319 319 318 317 317 321 323 320 319 320 320 321 322 323 324 323 323 324 321 320 321 320 318 319 321 321 319 320 320 318 318 319 320 322 322 321 321 322 322 322 324 321 318 321 325 325 325 326 326 325 326 327 325 323 325 325 321 321 322 319 319 319 319 319 319 320 320 319 321 324 326 327 328 328 328 329 331 332 333 335 336 335 336
308 314 319 319 319 319 319 318 318 320 322 321 320 320 320 320 322 322 322 324 324 323 324 323 322 322 322 320 320 321 321 319 320 319 318 318 319 320 323 324 323 322 321 322 322 324 324 320 319 324 325 325 325 324 322 323 325 326 326 326 325 323 321 321 320 320 319 318 318 318 318 319 320 322 324 325 327 328 328 328 328 330 332 332 333 334 336 336
308 315 321 319 319 319 319 319 319 321 321 321 322 322 322 322 322 322 323 323 324 324 324 323 323 322 323 322 321 321 321 320 321 320 319 319 319 321 323 324 325 324 322 322 323 324 326 322 318 321 324 322 323 323 322 322 323 323 323 323 323 324 323 323 322 320 318 317 318 318 317 318 322 324 325 325 326 327 328 328 328 330 331 332 333 334 335 336
309 316 320 318 319 320 320 320 321 322 321 321 322 321 322 323 323 322 322 322 323 324 324 324 323 323 322 322 321 321 322 321 321 321 320 320 320 322 323 324 325 326 322 322 323 323 325 323 318 319 321 320 322 324 323 323 324 323 322 321 322 322 321 320 320 320 320 318 317 318 317 319 323 325 325 326 327 327 328 329 329 330 331 333 335 336 336 337
311 317 318 317 319 320 320 323 323 322 321 321 321 321 321 322 322 322 322 323 323 324 323 323 323 323 322 322 322 321 321 322 322 321 322 322 322 323 324 325 326 326 323 324 324 324 327 325 320 317 320 321 323 324 323 322 324 324 324 323 324 323 321 318 318 319 320 319 320 319 317 319 325 326 327 328 328 328 329 330 330 330 332 334 336 336 337 337
316 318 316 316 318 320 321 323 322 321 321 321 320 320 321 321 322 322 322 322 324 324 323 322 322 322 322 322 322 321 321 322 321 322 322 322 324 325 325 326 325 323 323 324 323 325 327 326 319 317 320 322 323 323 323 323 324 324 324 324 324 323 323 322 321 321 320 319 319 319 316 319 325 327 328 329 329 329 329 329 330 331 333 335 335 336 337 337
317 316 315 315 318 319 320 321 321 320 322 322 320 320 320 321 322 322 321 322 324 324 323 322 322 322 322 321 321 321 321 321 321 322 323 324 324 325 325 326 326 325 325 328 328 325 324 323 319 316 317 319 320 321 322 322 323 323 324 325 324 324 324 325 325 323 320 319 319 318 316 319 324 326 327 327 326 328 329 328 329 331 334 334 334 335 336 336
314 314 315 315 316 318 321 322 322 322 323 323 322 321 320 320 320 320 321 322 324 325 324 324 322 321 321 320 321 321 321 321 322 322 323 324 325 326 326 326 328 330 330 330 329 325 323 324 321 316 315 316 316 317 319 320 322 323 324 324 324 325 325 324 322 320 319 320 320 318 318 320 324 326 325 326 326 327 329 329 329 331 333 333 334 335 335 335
316 316 316 316 316 318 320 321 321 322 323 322 321 321 321 321 320 320 321 321 323 325 325 324 322 321 321 320 321 322 321 322 322 322 323 324 325 326 326 326 329 331 329 325 325 326 327 327 326 321 318 317 317 320 323 323 322 321 322 323 324 325 326 325 321 318 319 321 319 319 322 322 323 325 325 327 328 327 328 330 330 332 333 333 334 334 335 335
316 317 317 318 318 317 318 320 320 320 322 322 320 321 321 321 320 320 321 322 324 325 325 325 323 322 322 322 322 322 322 322 323 323 324 324 325 326 326 326 326 329 330 326 324 327 326 323 326 328 323 321 322 323 324 323 322 321 321 323 324 325 326 325 321 321 323 320 317 322 327 323 323 326 325 327 328 327 328 330 330 332 333 332 333 334 333 334
314 317 319 319 318 318 318 319 320 320 322 321 321 322 322 321 321 320 321 323 323 324 325 325 323 322 322 323 323 323 323 322 322 324 324 323 325 325 325 327 326 327 332 328 324 328 327 322 327 329 325 323 323 323 323 323 322 322 322 323 324 324 325 325 323 324 325 321 319 324 328 325 325 326 326 327 329 328 328 331 331 332 332 332 333 334 333 333
314 315 317 317 318 321 320 319 319 320 321 321 321 321 322 321 321 321 321 322 323 324 324 325 324 323 322 322 323 324 324 322 322 325 325 324 326 325 325 327 326 327 330 328 327 330 326 324 329 328 324 325 324 323 324 323 322 323 322 323 324 324 325 325 324 325 326 323 323 325 326 326 327 326 327 328 329 329 330 331 332 332 332 332 333 334 333 333
314 315 316 317 318 320 321 320 320 320 320 321 320 320 321 321 320 320 320 322 324 325 324 324 325 323 322 322 322 323 325 324 323 326 327 326 326 325 325 327 327 328 328 328 331 331 325 325 331 329 322 322 324 323 324 323 322 322 322 323 324 324 324 325 325 327 326 325 326 327 326 327 328 328 329 330 330 331 331 332 333 332 332 333 334 333 333 333
313 313 315 318 319 319 320 321 320 320 320 320 320 321 321 320 319 320 321 321 324 325 325 325 325 325 325 325 322 322 324 324 324 326 327 326 326 325 326 327 327 328 329 328 330 331 326 325 329 327 320 319 323 323 323 324 323 321 321 323 323 323 324 325 326 327 326 325 327 327 325 326 328 329 329 330 331 331 331 331 332 331 332 333 333 332 332 333
310 312 313 316 319 319 319 321 321 320 320 321 321 321 321 320 320 321 321 321 322 323 324 327 328 328 327 327 325 324 325 326 326 327 327 326 326 327 327 327 327 327 329 329 329 329 328 325 325 324 319 319 324 324 323 324 321 320 322 324 323 324 324 324 325 326 326 326 325 324 325 327 330 330 331 331 331 331 331 331 331 332 332 332 332 331 331 332
Wind_Speed
22 21 19 17 14 12 11 8 6 7 7 8 9 9 10 11 11 10 10 9 9 8 8 9 9 8 7 6 5 4 3 4 4 4 3 2 2 3 4 4 4 3 3 3 2 3 3 3 2 3 4 3 1 1 2 2 1 4 4 2 1 2 4 4 5 5 6 8 8 7 6 7 9 9 9 9 13 15 15 16 14 14 14 13 13 12 10 8
22 22 19 17 15 12 12 10 7 6 6 7 8 8 8 10 10 10 9 9 9 9 9 10 10 9 7 7 7 5 5 7 7 5 5 5 4 3 3 3 3 4 3 3 3 4 6 5 5 4 4 2 1 1 2 1 2 3 1 1 3 5 6 6 7 6 6 8 9 9 7 7 9 9 8 8 12 14 13 13 14 14 13 13 13 12 11 10
22 22 20 17 15 13 12 11 8 6 6 6 6 7 7 8 9 9 9 8 8 9 10 10 10 8 7 7 7 6 4 6 7 7 8 7 5 3 3 2 3 4 3 3 3 3 4 5 5 3 1 2 2 2 3 1 1 2 1 3 6 7 8 8 8 8 7 9 9 9 8 8 9 8 8 11 13 12 10 10 11 12 12 13 12 12 12 9
22 22 20 17 15 13 12 12 9 5 5 5 5 5 5 7 8 8 8 8 8 8 10 10 10 8 7 6 5 5 2 5 7 8 8 7 5 4 3 3 4 5 4 5 4 4 4 4 4 3 3 5 6 4 5 4 2 3 3 5 8 8 9 9 9 9 9 8 9 10 9 9 8 7 10 12 11 9 9 9 10 12 13 13 12 11 9 8
21 21 20 17 14 13 12 12 10 6 5 5 4 3 3 5 7 7 7 7 7 8 9 9 9 8 8 7 6 4 3 1 6 6 7 7 5 4 4 5 6 5 4 4 5 4 4 4 4 5 5 5 7 6 8 9 6 7 8 10 9 8 9 10 10 9 8 8 9 10 9 9 9 8 8 8 8 8 9 10 10 12 13 13 11 10 8 7
20 21 21 18 14 13 11 11 11 8 6 5 4 2 1 4 5 6 6 7 7 8 9 9 9 8 8 8 6 6 4 4 5 5 7 7 6 5 5 6 5 5 4 4 4 4 4 4 4 6 7 7 7 7 9 8 6 7 9 10 11 10 10 10 9 7 6 8 9 10 10 11 11 10 8 10 11 10 10 10 11 12 12 11 10 9 8 7
20 21 20 18 14 12 10 10 10 9 8 6 3 1 1 3 4 4 5 6 7 8 9 9 8 7 7 6 3 4 8 8 5 5 7 7 7 7 6 7 7 5 4 4 5 5 6 6 7 8 7 7 9 10 10 10 9 8 9 10 12 12 11 9 8 7 7 9 10 11 11 11 11 10 10 13 12 10 10 10 10 11 11 10 9 8 7 7
20 20 20 18 14 11 9 9 10 11 11 7 2 2 3 3 3 3 4 5 6 7 8 8 8 7 7 5 0 5 11 8 5 6 7 8 8 7 8 8 8 5 4 4 6 7 7 8 8 7 7 8 9 11 12 11 11 9 9 11 12 12 11 9 9 9 9 10 10 11 11 10 11 11 11 12 10 9 9 9 10 10 9 8 8 7 6 6
21 20 19 17 13 10 8 9 11 13 12 6 1 4 4 3 2 2 3 5 6 7 8 8 8 8 7 5 1 6 10 6 3 4 6 9 9 8 8 7 6 4 4 5 6 4 5 6 7 8 9 10 10 10 8 6 7 9 11 12 12 11 10 9 9 9 9 9 9 10 11 11 11 9 10 10 8 9 9 9 9 9 9 7 7 6 5 5
22 20 18 17 13 9 8 9 12 15 12 3 3 5 6 3 2 1 3 5 6 7 8 8 8 8 7 5 3 7 8 5 3 3 5 9 9 8 7 6 5 4 5 6 5 5 6 9 11 12 11 10 8 8 8 6 8 11 13 13 12 11 10 9 10 9 9 8 7 9 10 10 7 3 5 9 8 8 9 8 8 8 8 7 6 5 4 4
23 20 18 16 12 9 8 9 12 15 9 2 5 6 6 3 1 1 3 5 6 6 7 8 8 9 6 5 7 8 6 3 4 3 5 8 8 6 5 6 5 5 5 6 7 9 11 12 11 9 8 10 11 12 13 12 13 13 13 13 11 11 10 8 9 8 7 7 6 7 8 7 5 3 7 10 8 8 8 8 8 7 7 6 5 4 3 3
22 21 18 16 12 8 7 9 12 13 8 6 8 8 6 3 1 1 3 4 5 6 7 7 8 9 4 5 10 8 5 4 5 4 6 6 6 6 5 6 6 6 6 8 11 10 9 7 4 5 8 9 10 10 11 11 13 12 11 11 11 10 9 7 7 5 5 6 4 1 4 6 6 6 9 9 8 7 7 7 7 7 7 6 5 3 3 2
22 21 18 16 12 8 7 9 10 10 7 8 9 8 5 2 1 1 2 4 5 5 6 7 8 8 3 5 10 9 7 4 4 5 6 6 7 7 7 8 8 8 8 10 11 7 6 5 6 11 10 7 8 9 10 10 10 10 7 7 8 8 7 6 4 4 5 7 4 2 2 6 6 8 9 8 7 7 7 6 6 6 6 6 5 4 2 2
21 20 18 16 12 8 6 8 10 8 6 6 6 6 4 1 0 1 2 3 4 4 5 5 7 7 3 6 9 11 10 4 4 5 5 6 7 9 10 10 11 10 10 10 9 8 8 9 12 13 8 8 12 13 11 8 6 5 4 4 3 4 6 5 3 4 5 6 4 5 0 6 7 8 8 8 8 7 7 7 6 5 5 6 5 4 2 2
20 20 18 15 12 8 6 8 9 7 3 3 4 4 2 1 1 2 3 4 4 5 5 5 6 5 2 7 5 10 12 6 4 4 6 6 5 9 11 11 11 10 10 10 10 10 10 9 10 11 11 12 13 11 7 5 4 3 3 3 2 4 6 6 4 4 2 4 4 5 1 6 7 9 10 9 9 8 7 6 6 5 5 4 4 4 3 2
20 19 18 16 13 8 6 8 9 7 2 2 2 2 2 1 2 3 4 4 5 5 5 5 6 7 1 6 4 7 10 7 3 4 6 5 4 8 10 11 11 10 11 11 10 9 8 8 9 11 10 9 7 4 3 4 4 2 1 4 4 5 6 6 6 5 2 1 3 3 1 5 6 9 10 9 9 9 7 6 6 5 5 4 4 4 3 2
19 18 17 15 13 9 6 7 9 7 2 2 2 1 2 2 3 4 5 6 6 6 6 6 6 6 1 5 2 5 9 6 2 4 5 5 5 8 9 9 10 10 11 10 8 7 6 7 7 7 5 3 1 2 2 3 4 3 3 4 5 4 4 4 5 6 4 2 2 2 1 3 6 7 10 10 9 9 7 6 6 6 5 4 4 3 2 2
18 17 16 15 13 10 6 7 10 7 2 2 3 2 1 2 2 4 5 6 7 7 6 4 5 3 4 5 3 6 8 6 2 5 6 6 6 6 6 6 8 9 8 7 6 3 3 4 4 3 3 2 1 2 2 5 4 4 3 4 5 4 4 4 5 5 6 3 2 2 1 2 5 6 8 9 9 9 7 6 5 5 5 5 4 3 2 2
18 16 15 14 13 10 6 7 10 8 3 2 4 2 2 2 3 4 5 6 6 6 3 1 3 3 3 4 5 6 7 4 3 6 6 5 5 6 5 5 7 5 3 3 4 2 3 4 4 2 3 3 3 4 6 6 5 5 4 4 5 5 6 6 6 5 4 4 2 1 0 1 3 5 7 9 9 9 8 6 6 6 6 5 5 4 3 2
17 15 14 13 12 10 6 6 10 9 6 3 3 3 2 2 5 4 3 5 5 4 3 3 4 5 3 3 4 6 4 1 3 6 7 5 5 6 6 5 5 4 3 1 4 3 5 2 3 4 5 6 5 5 5 3 4 4 3 4 4 4 6 5 5 5 3 3 1 1 1 1 2 4 7 9 10 9 9 8 8 7 6 6 5 4 3 2
16 15 13 12 11 9 5 5 8 11 10 6 3 3 3 1 3 2 1 3 3 4 4 4 6 6 5 5 5 5 2 2 4 7 8 6 6 5 5 4 4 1 2 1 2 3 4 2 7 6 5 5 4 3 2 2 2 2 2 3 3 4 6 5 3 4 3 4 2 2 2 1 3 3 6 8 9 9 10 9 9 8 7 6 5 4 3 3
16 14 13 11 10 8 3 4 6 9 10 7 6 8 10 6 2 2 1 2 3 4 5 4 6 6 6 6 5 4 1 3 5 8 8 7 8 5 2 3 2 4 4 3 2 3 2 6 7 5 3 3 3 2 2 2 2 1 1 1 3 4 4 6 3 3 4 3 1 2 3 1 4 3 5 7 8 8 9 9 9 8 7 7 6 5 4 4
15 14 13 11 10 6 2 2 4 6 7 8 10 10 10 8 4 4 1 2 2 3 3 3 4 4 4 3 3 3 3 2 3 8 9 8 6 5 2 1 2 4 2 1 2 3 5 7 5 3 2 2 2 2 3 3 1 1 1 1 4 3 0 3 5 4 3 3 3 4 4 2 4 4 5 6 8 7 8 8 8 8 8 7 6 5 5 5
14 13 13 10 9 5 1 2 3 3 6 8 9 8 7 7 6 4 1 3 2 2 2 3 4 3 2 2 2 3 3 3 2 5 8 8 5 3 1 2 0 2 4 5 5 6 7 6 4 3 2 1 0 2 2 2 2 3 3 3 4 3 2 4 4 4 4 4 3 5 3 4 4 3 4 5 7 7 8 8 9 9 8 8 7 6 6 6
14 13 13 11 9 4 2 3 3 2 5 7 6 6 5 5 6 4 1 4 3 3 3 3 2 2 2 3 2 3 3 0 2 2 6 7 4 2 1 1 3 3 5 1 1 6 7 5 3 3 2 2 2 1 2 4 2 5 3 4 4 1 2 2 2 3 4 3 1 3 1 5 5 3 4 4 5 7 8 9 10 10 9 9 9 8 7 7
14 14 13 11 10 4 3 2 3 2 4 5 3 4 4 4 5 4 1 4 4 4 4 4 4 3 1 1 1 4 5 2 3 1 6 8 5 4 2 1 2 3 3 2 1 3 5 5 4 3 2 3 3 2 4 5 3 5 4 3 3 2 1 2 1 2 0 4 3 3 3 3 6 5 5 3 4 5 7 9 9 9 9 9 9 8 8 8
13 14 12 11 10 5 3 1 1 3 2 2 1 2 2 3 4 2 1 4 3 3 2 4 3 2 3 1 2 5 3 4 4 3 5 7 5 5 4 1 1 2 2 3 1 3 3 5 4 3 3 3 1 4 4 5 5 6 4 2 1 0 1 1 1 1 2 2 2 1 4 1 5 6 4 3 3 4 5 7 8 8 8 9 9 8 8 8
12 14 13 10 10 6 2 0 2 3 0 2 2 1 1 2 3 1 3 4 3 2 2 3 1 1 1 3 4 5 4 1 1 4 5 6 4 5 4 2 3 2 4 5 2 4 2 3 2 2 3 2 5 4 3 4 4 5 2 2 1 1 1 1 1 2 1 2 3 4 4 2 5 5 5 3 2 4 4 4 6 8 8 9 9 8 8 8
11 13 13 10 8 6 2 1 2 1 2 1 2 1 1 2 3 1 4 2 2 3 2 2 3 3 2 5 4 4 4 2 1 4 5 6 4 4 2 3 2 2 4 6 3 5 2 1 1 3 3 4 5 3 2 4 4 5 2 2 1 1 2 2 1 1 1 1 5 6 5 3 4 4 4 2 1 3 3 3 4 5 8 9 9 9 9 9
10 12 12 10 8 5 4 2 0 1 1 1 2 1 3 3 2 4 4 2 2 4 3 1 3 2 2 6 5 3 3 2 1 2 5 4 4 4 1 1 3 2 3 4 1 5 4 1 1 2 3 4 3 3 1 2 2 4 4 3 2 2 3 2 1 2 1 4 6 6 7 5 4 4 4 3 3 3 2 3 4 4 6 8 10 10 10 10
10 11 12 10 7 5 3 2 3 3 1 2 1 4 5 3 3 5 4 1 1 4 4 3 2 2 3 4 3 4 4 3 3 4 5 4 5 6 4 3 4 3 2 3 3 4 6 5 3 2 2 2 3 4 3 2 3 3 4 2 1 2 4 3 3 2 2 7 6 4 4 2 2 5 5 4 3 2 1 2 3 4 6 8 10 11 11 11
10 10 10 9 7 5 3 2 3 3 2 2 3 6 5 3 4 4 3 3 3 3 3 2 3 2 2 3 3 2 2 3 4 3 3 2 3 3 3 2 1 1 1 3 2 4 5 4 5 5 4 4 5 3 4 4 4 4 3 2 2 1 2 2 3 3 5 6 4 2 1 2 3 7 7 6 4 3 3 3 1 3 6 9 10 11 12 12
9 9 8 8 6 4 3 3 3 3 2 1 4 7 5 5 5 2 3 5 1 2 1 1 1 1 2 4 4 2 2 2 3 2 2 2 4 2 1 1 4 3 1 2 0 3 4 5 5 5 5 4 6 3 1 2 0 3 4 4 4 5 4 5 5 4 5 6 5 1 2 1 4 6 8 7 6 5 2 2 0 4 7 9 10 12 13 13
9 8 7 7 6 4 3 3 3 3 2 2 6 6 5 5 3 1 3 5 2 1 2 0 1 3 5 4 2 1 3 2 2 2 4 4 4 3 3 4 3 5 2 1 1 1 2 4 4 1 3 4 4 4 5 3 3 4 4 4 4 5 5 5 5 5 5 5 5 1 2 5 5 5 7 6 5 4 3 2 2 5 8 9 10 12 13 14
8 7 6 6 5 3 3 3 4 3 2 4 6 5 5 5 3 3 4 4 3 3 4 2 4 6 6 4 2 1 2 2 2 3 4 3 3 2 1 3 3 4 3 1 1 0 0 4 5 3 3 1 2 2 3 5 1 3 2 3 4 5 4 4 4 4 3 2 4 2 2 5 3 3 7 5 5 5 3 4 5 8 10 10 11 13 14 14
7 5 4 4 3 1 4 4 4 3 3 5 6 6 5 2 1 3 2 2 2 2 4 5 5 6 7 5 5 4 1 0 2 3 3 2 2 1 1 0 2 5 4 2 1 1 1 3 5 3 2 1 2 1 1 5 3 1 2 2 5 3 4 2 1 0 1 1 3 2 3 4 2 5 8 6 5 7 5 5 6 9 10 11 11 12 14 14
5 3 2 2 1 3 4 4 4 3 4 6 6 4 2 2 2 1 2 1 1 0 3 6 3 4 6 6 6 6 4 3 3 3 3 3 1 1 1 1 1 4 5 4 1 1 2 2 5 3 3 4 1 1 2 2 5 5 3 4 2 3 3 2 1 1 1 3 4 3 5 6 4 5 6 6 7 7 5 6 6 8 10 11 11 11 13 13
4 2 3 4 4 3 3 3 3 3 4 6 6 4 2 0 1 2 2 1 0 2 5 5 1 1 4 6 5 6 5 4 4 3 3 3 2 1 0 1 2 2 4 5 3 1 3 2 5 3 2 5 3 4 3 3 2 5 3 2 2 2 1 2 3 3 4 4 4 4 5 6 7 7 6 8 9 7 5 5 5 6 9 11 11 12 12 12
5 2 4 6 6 4 3 1 1 4 6 6 6 4 1 1 2 1 0 1 2 3 5 3 1 1 4 4 3 5 3 4 3 3 4 2 2 2 1 1 1 1 2 5 4 2 2 3 2 4 3 4 4 4 1 3 3 0 1 2 1 3 3 3 2 3 4 4 4 6 5 5 7 8 8 10 9 6 5 4 3 4 6 8 10 13 13 13
5 3 4 7 8 5 2 1 2 5 6 5 4 2 2 2 3 2 2 2 3 3 2 1 2 3 4 3 2 3 2 3 3 3 3 2 2 3 2 2 2 1 1 4 5 2 2 3 0 4 4 3 4 1 2 1 1 1 2 0 1 0 1 1 1 2 4 4 3 5 5 4 7 6 8 9 7 5 5 3 3 3 4 5 7 11 12 13
4 3 3 7 9 6 2 3 4 4 4 2 2 2 2 0 2 3 3 3 4 3 2 2 3 3 4 4 3 4 3 3 4 3 3 3 2 1 2 2 4 3 3 4 5 4 3 3 2 2 4 3 1 3 3 4 4 3 2 2 2 1 2 2 1 1 2 3 4 5 5 4 6 5 6 8 7 6 5 4 2 2 2 3 5 8 10 11
3 4 2 6 10 6 3 4 2 2 4 2 1 2 1 1 2 3 3 4 5 3 2 3 3 3 4 3 3 4 4 4 4 3 3 2 1 1 2 3 4 5 4 2 2 1 0 2 4 2 0 1 4 4 2 2 3 4 2 2 2 1 2 3 4 3 3 2 2 2 3 3 6 5 5 6 6 6 6 5 3 2 2 2 4 6 9 9
4 4 3 6 10 8 4 4 3 3 4 1 0 2 2 2 3 3 4 5 5 4 3 4 4 4 4 3 3 5 5 3 3 2 2 3 3 4 4 3 2 6 5 2 2 3 1 3 4 3 1 3 4 4 2 2 4 5 1 1 2 2 2 4 4 4 4 2 2 3 3 2 4 4 3 4 5 6 6 5 4 3 1 1 3 6 8 9
5 6 5 6 9 8 6 4 4 5 4 2 2 4 4 3 4 4 5 6 5 3 4 4 4 4 3 2 3 4 4 3 3 3 2 2 4 4 3 2 2 5 3 1 0 4 4 3 3 4 3 3 3 4 4 4 5 4 1 2 1 1 1 1 1 2 3 2 3 6 4 3 4 4 4 5 8 8 7 5 4 3 2 1 3 5 7 9
5 6 6 8 8 8 6 5 4 4 4 4 4 5 4 4 5 6 6 5 5 4 4 3 2 3 3 3 4 4 3 3 3 3 3 2 4 5 2 2 0 2 1 2 1 3 3 3 4 5 4 3 4 2 1 2 3 2 2 3 2 2 2 2 2 3 3 3 3 6 5 5 6 7 6 7 8 10 9 7 5 4 4 2 2 5 7 8
3 3 5 6 8 10 9 7 7 6 3 5 4 4 5 5 4 5 6 7 7 6 5 3 2 4 4 5 6 6 6 4 2 3 5 5 5 5 2 2 2 2 4 3 3 3 2 3 4 6 6 5 5 4 3 1 2 2 4 5 4 2 2 3 4 4 5 4 5 5 6 8 9 8 7 7 7 9 9 8 6 6 5 3 2 4 6 7
3 2 3 3 5 9 9 8 10 8 4 5 4 2 6 7 4 5 6 6 5 6 6 4 4 6 6 7 8 7 7 6 5 5 5 5 3 4 4 2 2 3 5 3 3 3 4 4 4 5 6 4 5 5 2 2 4 2 2 4 4 3 3 5 5 5 6 6 5 4 6 9 9 8 8 7 7 8 8 8 7 7 6 4 2 4 5 6
5 2 2 3 3 4 6 7 10 9 5 5 4 1 4 7 6 5 6 6 5 6 6 5 7 9 8 8 8 6 7 8 7 6 5 4 4 4 5 4 3 4 5 4 2 2 5 4 2 3 4 1 2 2 1 2 3 2 2 3 4 5 5 5 6 5 4 6 7 6 6 9 8 8 8 7 7 7 7 7 6 5 4 3 2 3 4 6
7 4 3 5 4 2 1 2 8 10 8 6 5 4 6 7 7 6 4 5 6 8 8 7 9 11 10 8 8 7 7 7 6 6 6 4 3 3 4 4 4 3 4 3 2 0 4 2 2 3 4 3 2 2 2 3 4 4 5 5 5 5 6 6 7 5 4 7 8 6 7 9 7 6 7 7 7 5 4 4 4 4 4 3 2 1 2 4
5 4 3 4 6 4 1 2 6 8 7 7 6 6 7 7 7 6 4 5 6 7 8 9 9 10 9 8 9 8 8 7 6 5 6 5 4 4 4 2 2 1 2 2 2 1 3 1 2 3 5 5 5 4 4 4 5 6 7 6 6 6 7 7 5 3 4 6 5 5 8 7 2 4 6 6 4 2 3 5 6 6 5 4 3 2 1 2
9 6 3 3 4 6 5 5 7 6 5 7 7 5 7 9 8 6 5 8 8 5 6 9 9 7 6 7 11 11 8 7 6 3 3 5 3 2 2 1 2 2 1 2 1 1 3 2 2 4 7 5 5 6 6 5 5 9 9 9 10 9 6 5 3 2 3 5 4 5 7 3 4 5 6 4 3 3 7 8 7 7 6 5 5 5 4 2
14 8 4 4 3 5 7 5 6 7 5 6 8 7 7 7 6 6 5 7 9 8 5 5 6 5 5 7 10 8 4 3 2 2 3 2 1 2 1 1 2 2 1 2 0 1 2 3 3 5 7 5 4 4 4 4 7 9 7 7 9 8 5 4 3 3 3 4 5 4 4 5 6 6 5 4 5 6 9 8 7 7 7 7 7 6 6 4
Wind_Direction
12 12 9 6 5 7 8 6 358 357 4 8 12 20 24 29 35 40 49 53 56 56 51 49 47 46 49 53 64 77 94 91 74 58 30 340 311 288 289 302 302 301 304 314 288 269 269 272 276 271 252 233 295 75 113 82 259 239 241 241 102 81 65 46 48 66 102 115 118 131 134 117 120 114 106 94 88 92 85 83 81 79 80 87 104 113 116 107
9 10 10 7 5 4 5 5 358 353 359 5 10 18 25 28 34 40 48 54 55 53 49 47 46 45 49 54 59 72 91 85 77 59 27 356 339 339 326 320 312 311 313 305 276 277 292 309 323 297 255 215 57 138 142 93 270 275 296 107 69 69 68 56 66 70 90 112 119 126 130 121 121 126 127 114 104 100 94 94 93 88 86 88 94 98 101 98
7 8 9 8 6 3 1 1 358 351 355 3 8 16 26 28 33 40 46 53 53 51 48 48 48 45 48 57 55 53 90 100 79 44 20 7 357 7 2 355 326 318 317 297 300 333 338 340 344 331 187 115 84 102 110 85 285 333 347 109 85 84 82 69 77 79 90 111 122 122 123 117 112 127 135 124 115 107 99 102 105 104 102 101 102 102 102 101
6 6 8 9 5 4 1 357 357 350 350 1 4 13 28 30 33 38 47 50 49 48 45 49 50 46 46 48 44 43 150 142 67 25 11 20 19 23 23 6 330 325 332 330 352 26 23 22 33 69 98 102 96 85 75 56 48 51 43 94 96 101 92 79 84 88 97 110 116 120 122 112 106 120 128 124 114 102 96 99 110 116 117 118 117 113 108 96
5 4 7 10 7 5 2 358 359 353 351 1 2 5 29 37 33 38 47 45 42 42 41 45 47 49 48 43 47 29 255 161 46 8 7 15 8 11 358 340 331 335 344 360 26 38 38 54 72 84 87 100 104 89 76 70 76 80 71 84 94 100 96 90 91 91 98 109 115 120 116 109 110 108 109 111 100 96 105 109 112 114 117 122 120 113 106 90
5 3 5 9 8 5 6 4 1 358 352 352 4 354 35 47 35 37 46 43 37 34 37 40 38 42 39 38 48 17 350 55 32 353 5 357 349 357 343 344 351 358 24 48 45 41 51 67 80 86 85 85 88 85 84 80 87 94 83 86 90 93 98 98 95 94 105 109 107 108 110 115 110 95 89 91 92 101 113 115 113 111 114 115 113 109 101 88
5 2 3 7 8 8 11 6 359 358 348 343 359 312 146 68 41 37 43 40 31 28 33 34 32 31 22 25 57 43 47 58 36 9 6 354 359 5 7 14 12 25 58 63 45 51 63 76 83 88 89 85 87 90 89 83 86 99 96 91 90 93 97 97 97 99 102 100 102 109 115 119 109 100 100 96 97 108 112 114 114 112 114 111 110 108 97 85
4 1 2 5 8 9 12 3 353 352 345 338 340 214 163 95 53 39 36 35 25 27 30 29 29 13 10 15 165 81 53 39 30 26 11 13 21 19 27 22 12 38 81 63 55 66 77 83 82 82 86 91 96 98 99 92 87 94 99 96 95 95 94 95 98 101 101 101 110 117 111 104 105 112 109 103 109 117 118 121 120 116 114 112 116 115 104 88
3 1 359 3 7 8 8 357 350 351 344 334 224 186 161 117 77 44 28 30 20 24 26 27 26 8 22 20 312 73 41 5 27 29 10 26 35 32 27 17 20 65 101 71 57 59 76 83 81 87 93 95 97 101 108 100 87 95 101 101 101 98 95 97 99 103 104 106 113 114 107 104 111 117 109 111 123 124 129 131 129 127 121 123 128 122 112 96
1 1 358 2 6 7 3 353 353 355 348 333 176 172 157 132 112 33 19 25 19 24 25 27 25 17 31 358 337 59 24 345 72 41 19 30 34 36 22 20 46 98 100 69 47 53 88 102 99 99 95 93 92 85 84 91 101 104 103 100 100 99 98 99 100 105 102 100 112 115 113 116 131 157 119 127 138 135 139 139 139 137 128 134 138 130 122 103
358 1 358 360 5 7 2 353 355 359 3 68 142 155 154 141 127 23 9 20 20 20 23 27 23 23 33 358 15 44 13 15 82 53 42 36 37 45 25 33 66 106 94 72 73 85 102 108 107 102 92 98 98 86 83 99 111 111 109 103 101 101 101 103 102 106 105 103 112 115 122 133 152 163 125 137 152 150 148 147 153 146 133 140 144 145 139 121
356 360 359 357 3 8 1 356 358 7 31 97 125 143 155 137 107 14 353 10 16 15 22 24 20 21 25 34 39 38 27 59 77 60 54 43 45 56 53 63 83 100 93 91 95 99 103 106 114 103 109 117 107 97 99 112 118 118 121 111 111 114 103 98 99 106 116 123 123 114 145 138 132 126 125 143 157 160 162 159 161 153 141 143 148 152 146 145
354 358 360 357 360 7 4 0 2 15 53 99 117 137 150 125 98 345 340 354 1 4 14 12 20 19 355 57 56 43 39 65 76 66 65 55 55 63 70 80 89 93 97 104 102 96 87 92 103 100 115 122 98 108 120 128 129 126 132 124 128 125 103 95 108 134 137 137 149 283 168 124 121 134 139 153 163 173 176 168 167 160 152 150 151 150 152 181
352 356 359 358 357 3 4 4 7 19 61 99 111 131 142 131 355 334 317 332 343 348 358 360 18 26 35 80 66 39 33 48 84 78 81 74 66 73 82 84 89 96 101 104 99 90 89 102 108 101 100 102 107 122 127 137 143 135 151 166 157 113 101 107 128 167 154 154 202 295 108 119 132 152 160 168 172 186 181 170 173 166 163 160 156 156 159 190
350 354 358 358 356 360 3 6 9 15 55 110 116 126 143 192 292 300 296 318 324 327 339 344 1 3 81 103 69 28 31 42 90 106 98 88 76 84 93 92 92 101 104 103 98 96 99 102 104 97 96 113 131 138 131 142 158 178 176 139 110 96 112 124 139 182 166 160 225 296 28 116 137 158 170 179 179 192 188 174 179 178 180 175 163 163 156 173
348 352 357 357 355 359 3 6 9 11 34 146 148 140 156 203 274 276 286 303 303 314 323 324 340 323 307 104 76 23 28 35 99 125 102 97 95 97 106 102 100 108 107 107 102 100 102 95 98 104 114 135 150 154 148 141 137 169 131 90 85 99 124 130 140 174 203 169 206 270 359 101 126 155 168 184 188 194 199 184 185 190 194 195 180 173 166 167
345 349 357 357 354 358 3 6 9 11 20 182 185 176 169 196 250 267 277 287 294 303 303 306 318 311 8 90 75 26 17 11 96 138 124 111 101 106 115 109 110 117 113 112 106 102 105 106 120 121 129 159 167 242 201 99 95 107 94 93 92 88 114 128 137 169 194 239 208 221 295 83 114 153 169 187 196 201 211 198 193 198 198 204 196 188 182 173
343 346 355 358 353 355 2 6 9 15 38 184 192 206 203 189 228 261 272 282 286 276 273 285 285 265 109 86 15 14 7 358 121 160 145 122 110 112 121 122 129 132 132 130 117 120 130 139 177 152 126 149 169 288 50 61 60 82 81 96 109 101 96 102 109 152 182 212 219 199 246 108 126 161 177 189 201 211 217 208 204 204 200 205 204 202 188 183
342 343 353 359 353 353 1 5 8 20 49 166 181 192 214 198 220 248 270 279 273 256 247 308 293 293 70 58 9 359 353 3 134 161 155 144 129 119 122 132 146 164 191 165 116 145 197 175 178 142 92 88 55 31 53 60 51 62 69 79 94 96 87 86 93 125 187 212 208 198 164 124 155 170 184 194 201 214 223 218 216 211 207 211 209 206 189 177
341 340 350 0 354 353 1 7 9 21 49 104 149 174 204 220 211 209 268 273 265 276 310 340 314 305 333 1 352 343 341 36 142 170 178 167 143 139 134 141 182 218 258 4 94 152 230 197 79 59 59 62 60 57 58 66 69 70 78 78 78 86 88 91 101 124 200 240 134 83 330 204 185 178 184 194 198 212 223 221 219 215 212 214 213 205 183 154
340 338 346 0 357 352 358 10 15 24 34 49 94 147 113 81 216 178 336 260 238 266 271 283 287 289 309 323 326 337 324 193 168 180 188 178 187 184 144 170 231 194 89 49 104 174 235 51 62 51 54 61 65 86 114 131 113 107 84 81 85 74 87 96 91 121 189 249 114 89 286 205 164 176 179 190 200 212 219 219 219 216 217 216 215 212 178 151
338 338 342 359 0 351 360 21 31 30 26 50 96 112 100 95 167 139 351 263 242 259 256 268 283 293 309 315 320 337 296 215 174 178 191 185 206 227 159 204 284 66 124 201 182 157 121 67 67 66 75 93 103 126 172 179 196 193 98 105 84 67 100 121 122 147 182 252 61 53 295 123 131 167 173 191 204 213 216 219 221 217 220 221 215 211 192 177
335 338 340 357 3 350 5 41 51 46 36 71 91 92 90 84 96 118 121 288 263 239 240 271 286 294 307 319 333 329 310 297 163 175 192 191 202 244 267 265 39 79 143 158 72 78 79 71 75 99 130 142 128 150 211 206 186 351 355 30 82 80 95 105 121 162 186 249 319 322 281 117 121 167 174 193 207 214 214 217 225 224 226 226 224 218 205 197
332 337 338 352 4 358 97 69 62 72 55 65 75 75 78 67 64 92 131 285 268 201 221 275 289 292 301 302 317 305 300 342 34 160 187 200 200 227 289 349 14 114 72 52 69 82 78 75 93 146 204 258 172 152 226 253 102 68 10 6 53 87 39 42 107 167 193 209 270 293 250 123 106 158 162 174 196 213 216 216 224 223 223 223 222 225 215 207
329 335 338 347 4 11 165 81 62 125 73 57 55 55 61 57 54 73 135 251 227 178 217 251 254 261 285 281 317 309 274 35 34 140 183 207 221 228 110 330 294 80 82 34 85 90 83 93 147 200 240 281 285 71 19 322 54 92 53 16 3 23 83 79 136 201 210 161 75 317 255 108 104 121 112 140 184 207 211 216 222 216 215 217 216 219 216 213
326 332 338 343 357 18 161 68 46 132 73 45 31 37 45 51 52 73 140 245 216 157 189 206 198 195 194 309 14 273 248 119 53 102 182 195 209 243 194 138 305 59 92 260 355 73 95 128 191 246 288 269 268 58 44 320 321 78 61 12 344 301 177 131 176 248 316 76 59 328 323 92 112 111 101 138 186 191 196 209 219 214 208 209 212 211 206 208
326 328 335 342 351 18 131 101 43 105 62 347 303 27 39 51 56 69 178 224 199 142 182 182 181 171 140 43 337 274 270 88 86 105 169 189 177 238 250 96 346 101 144 233 116 88 122 155 198 240 267 270 12 49 39 316 327 60 61 333 349 266 154 153 239 332 49 84 133 355 325 22 101 98 109 161 200 175 182 199 204 209 205 201 204 200 195 199
327 323 329 342 345 357 63 103 87 97 318 265 270 348 30 74 76 55 235 205 159 140 174 157 181 209 204 303 297 289 326 21 175 108 155 194 168 235 255 42 5 96 171 251 71 99 175 183 188 249 270 8 42 23 9 314 337 62 71 315 359 53 80 229 265 70 71 245 116 70 335 317 94 105 136 173 203 150 156 181 183 190 191 190 195 192 186 186
327 319 323 337 339 339 336 312 94 98 263 255 260 242 139 111 105 233 246 221 160 163 146 154 196 202 255 272 254 263 292 271 297 81 147 189 184 247 277 64 353 116 174 267 4 100 159 343 353 291 319 43 52 34 4 311 358 81 149 210 155 146 151 217 263 104 193 354 59 44 346 352 79 100 128 138 84 88 108 135 139 164 177 181 184 182 180 180
324 317 317 330 339 329 311 303 308 297 283 251 257 181 138 139 166 219 220 222 172 151 139 190 197 184 240 245 213 195 239 219 83 119 164 190 205 223 292 118 225 195 163 236 328 97 114 112 245 277 6 54 88 98 84 310 62 122 179 176 155 174 174 199 209 216 200 76 62 29 5 16 68 75 71 73 56 40 46 99 110 138 169 174 175 174 176 177
319 314 314 324 338 334 329 306 268 287 281 251 222 149 158 164 222 230 188 164 186 148 167 193 164 184 230 252 219 167 208 193 151 202 192 184 199 196 202 200 205 220 165 158 145 132 158 174 164 139 100 126 159 133 125 157 150 191 225 211 220 191 180 189 173 188 63 66 55 26 8 345 50 56 42 47 73 77 9 48 110 140 156 166 175 177 174 173
316 310 311 320 333 333 319 260 258 277 261 250 173 170 186 190 218 232 152 164 202 158 174 162 133 183 229 258 248 179 213 183 161 228 237 204 216 198 214 257 264 240 102 92 129 154 163 141 117 133 161 217 236 180 146 167 198 247 282 298 314 76 99 80 84 74 62 64 47 27 317 290 60 54 32 25 44 56 26 6 58 144 148 157 171 177 175 175
314 307 309 314 322 317 290 259 254 256 254 222 178 192 224 217 206 218 160 176 171 77 136 123 123 238 249 230 207 170 226 192 147 200 224 252 250 208 184 305 307 296 11 32 166 145 128 122 143 165 159 207 258 290 79 121 64 2 360 351 14 41 38 45 55 55 68 73 62 40 277 335 77 54 29 25 27 30 17 349 333 158 154 157 164 169 172 177
313 307 312 311 307 292 270 251 245 256 251 190 195 203 219 214 193 68 187 171 100 90 158 185 229 210 228 232 139 128 220 171 104 216 205 227 239 220 182 176 234 279 293 287 323 64 111 121 136 132 110 179 243 342 2 352 34 37 356 333 29 34 14 32 41 40 63 83 83 131 282 36 49 33 31 36 36 31 23 42 130 160 155 156 161 165 171 178
314 309 313 310 308 276 230 225 233 249 217 192 212 213 206 210 187 172 190 154 132 174 158 161 230 205 200 204 127 70 274 131 125 238 230 241 253 259 246 162 190 249 268 260 97 29 341 97 91 62 58 239 233 62 329 295 11 70 297 302 38 24 1 35 40 21 18 58 72 53 13 47 67 62 49 52 74 73 65 86 135 157 154 158 163 167 175 181
319 316 309 308 319 190 184 207 222 228 210 205 218 218 213 244 199 171 167 108 140 175 165 173 208 214 192 179 173 176 265 264 187 228 222 230 271 279 291 326 180 220 255 303 126 220 281 97 106 124 133 36 357 82 301 310 336 340 286 33 50 347 316 1 88 195 296 10 51 32 32 58 130 83 50 26 62 81 90 101 128 152 155 162 168 172 181 185
323 304 281 271 221 162 175 206 220 215 215 221 226 229 240 352 16 87 97 84 114 193 219 194 189 229 203 183 184 174 179 203 199 228 214 182 195 187 208 246 193 227 262 299 281 250 289 122 125 164 156 99 46 209 136 355 316 311 16 61 50 268 274 330 21 107 62 52 51 41 51 43 33 62 51 21 40 57 73 93 119 151 164 174 175 177 183 185
330 282 238 224 202 173 181 216 231 216 213 223 228 245 284 300 58 46 80 90 238 209 227 218 163 256 220 198 180 157 177 202 179 208 229 186 169 126 50 152 154 229 284 284 257 202 274 224 134 162 159 117 166 223 152 115 329 338 33 83 279 306 20 31 25 19 23 39 29 19 49 49 30 33 30 22 32 36 43 75 109 141 167 182 182 182 184 182
334 294 220 212 208 193 191 222 260 225 216 220 223 219 239 194 140 94 22 295 265 222 223 226 161 214 226 217 178 142 182 226 188 206 231 208 167 153 8 7 143 181 273 260 242 154 245 269 130 149 160 144 192 237 233 126 122 146 193 182 307 357 3 15 25 358 6 24 16 5 18 55 46 27 16 18 21 20 21 34 68 107 156 180 183 186 186 183
334 289 220 206 213 210 206 248 240 225 214 219 238 204 147 192 182 187 234 265 267 250 235 214 185 193 194 203 195 149 182 229 212 220 223 190 176 159 117 10 324 229 183 232 241 190 197 264 305 142 159 195 210 231 320 342 102 186 208 161 48 53 302 339 31 353 1 4 6 1 352 45 58 29 11 14 9 7 13 12 31 77 136 164 180 186 188 188
323 275 221 204 212 206 209 242 228 229 224 218 254 209 151 254 234 199 217 240 255 278 300 270 241 208 185 187 187 169 180 202 201 222 215 184 207 183 107 4 306 262 178 198 219 207 198 237 256 179 179 215 115 60 351 317 318 312 333 354 350 359 308 311 32 22 349 344 354 351 336 31 64 37 10 12 360 355 5 4 355 26 104 148 178 185 189 191
272 253 220 202 205 195 212 240 217 241 247 220 224 209 158 300 257 221 208 218 231 240 249 260 261 240 214 201 170 174 197 201 192 211 213 176 149 58 56 348 286 244 227 215 171 138 308 250 245 255 235 85 66 58 349 295 277 279 314 334 312 335 322 337 8 353 333 338 339 328 328 26 60 41 11 8 2 358 3 6 1 13 73 149 184 187 188 188
255 264 269 214 202 193 222 242 207 221 234 177 106 203 184 221 236 222 210 210 217 219 214 228 235 234 234 223 193 192 199 203 198 194 177 152 108 66 26 345 259 218 226 250 133 134 217 253 238 247 155 121 109 107 121 169 221 237 217 224 286 339 351 342 355 338 321 322 319 323 329 17 59 44 359 355 7 12 16 12 9 24 61 165 186 185 184 185
269 273 268 229 202 191 216 240 223 222 210 172 214 207 192 229 238 230 224 211 207 218 222 221 224 227 226 227 222 206 193 205 208 183 177 173 124 94 39 352 223 212 219 320 77 165 197 234 238 248 225 177 182 170 156 177 214 240 163 149 267 330 338 308 323 293 303 347 346 322 317 2 24 360 341 359 5 13 29 21 2 26 45 139 177 174 178 187
272 261 239 225 207 200 227 262 270 252 206 190 220 211 197 218 225 235 251 236 219 232 239 223 219 224 204 203 220 211 205 231 219 178 187 192 141 122 77 32 243 225 157 32 325 194 217 232 227 251 258 239 252 255 126 176 203 223 178 158 186 212 209 278 298 287 318 13 326 304 313 345 346 332 342 8 3 3 19 19 9 29 31 35 161 171 175 189
269 245 207 198 196 210 235 256 260 262 227 200 213 208 206 211 200 211 241 238 222 226 248 250 220 215 202 204 217 208 199 212 226 204 205 198 160 126 99 64 61 90 104 106 160 188 236 237 231 264 278 290 319 10 48 310 249 220 189 174 179 198 226 284 292 308 342 333 299 321 341 326 325 330 340 6 9 359 7 12 13 23 18 23 134 172 179 188
247 254 213 185 183 210 225 225 229 241 235 213 215 192 204 214 201 184 205 227 220 213 232 242 218 213 203 201 217 217 200 201 209 212 215 209 167 119 130 141 69 109 133 130 151 186 235 224 212 259 275 311 350 29 71 261 269 269 205 184 183 190 216 263 287 320 336 309 302 9 356 313 319 332 335 1 12 355 359 6 4 9 10 23 107 163 179 188
225 273 281 242 210 208 216 212 215 219 212 211 220 201 207 210 201 190 198 213 216 208 215 219 214 220 216 204 213 217 206 208 209 203 207 210 193 169 169 154 101 126 158 157 142 213 258 236 173 233 250 315 24 49 133 250 268 284 252 224 219 212 216 249 282 303 308 293 306 344 332 304 310 320 332 10 12 345 353 2 352 358 14 40 102 152 179 192
233 266 272 244 244 246 259 217 210 212 213 213 218 219 221 216 205 199 199 207 213 211 215 220 215 216 218 214 217 218 208 210 213 207 207 202 194 211 205 164 126 135 158 152 121 220 270 245 139 211 228 184 161 171 196 231 245 247 243 245 246 239 239 257 281 296 288 281 293 312 302 291 299 319 340 7 1 338 357 17 16 31 42 51 75 131 183 201
225 249 248 249 251 244 242 204 202 209 209 209 221 223 222 228 220 206 200 207 211 203 207 224 226 215 216 219 222 225 218 216 230 225 209 206 199 216 234 210 146 146 138 125 115 181 252 240 131 213 233 205 185 187 200 224 249 253 251 252 249 252 261 266 272 272 263 273 286 289 281 278 325 10 351 359 357 357 74 61 53 55 53 50 48 37 359 234
213 214 220 277 254 208 196 199 202 212 207 202 214 214 214 228 228 219 216 216 225 227 212 228 235 217 209 222 227 234 234 232 251 252 201 218 223 204 221 204 188 213 154 98 88 218 233 231 163 217 246 230 191 202 215 218 245 253 254 257 256 261 272 268 239 209 255 297 293 266 272 306 37 2 346 16 52 85 79 66 57 58 55 48 40 28 11 319
219 217 224 268 260 195 194 198 198 211 219 206 207 206 213 225 219 217 227 217 224 241 251 259 256 226 206 216 224 234 235 214 220 103 129 156 105 116 143 137 179 231 171 123 146 243 230 241 216 222 252 242 178 196 224 225 243 251 251 253 260 273 283 265 234 210 228 284 285 281 322 3 2 336 344 50 85 84 72 61 49 47 47 45 39 27 14 356